Miscellaneous Local Product
Issued by NWS North Platte, NE

Home | Current Version | Previous Version | Graphics & Text | Print | Product List | Glossary On
Versions: 1 2 3 4 5 6 7 8 9 10 11 12 13 14 15 16 17 18 19 20 21 22 23 24 25 26 27 28 29 30 31 32 33 34 35 36 37 38 39 40 41 42 43 44 45 46 47 48 49 50
000
AXUS43 KLBF 300410
MISLBF


WESTERN AND NORTH CENTRAL NEBRASKA HOURLY WEATHER ROUNDUP
NATIONAL WEATHER SERVICE NORTH PLATTE NE
1000 PM CST THU JAN 29 2015

***STATIONS NOT REPORTING VARIABLES SUCH AS SKY/WEATHER OR
PRESSURE ARE PROVIDED BY THE NEBRASKA DEPARTMENT OF
ROADS...RAWS...AND APRS NETWORKS...AND ARE NOT UNDER
NATIONAL WEATHER SERVICE QUALITY CONTROL***

...OBSERVATIONS IN AND NEAR THE EASTERN PANHANDLE OF NEBRASKA...

CITY           SKY/WX    TMP DP  RH WIND       PRES   REMARKS
PINE RIDGE     CLEAR     22  13  68 NW6       30.37F WCI  14
CHADRON        CLEAR     32  18  56 SW9       30.37F WCI  24
ALLIANCE       CLEAR     26  17  68 S10       30.38F WCI  16
SIDNEY         PTCLDY    26  18  71 S6        30.41S WCI  19
WHITECLAY        N/A     24  14  67 SE6         N/A  WCI  16
CRESCENT LAKE    N/A     28  12  52 SE3         N/A
LISCO            N/A     33  16  49 NE7         N/A  WCI  26
LEWELLEN         N/A     22  15  72 CALM        N/A
$$

...OBSERVATIONS IN NORTH CENTRAL NEBRASKA...

CITY           SKY/WX    TMP DP  RH WIND       PRES   REMARKS
VALENTINE      CLEAR     24  18  77 CALM      30.45S
THEDFORD       CLEAR     25  18  76 CALM      30.45F
AINSWORTH      CLEAR     24  19  80 S5        30.45F WCI  18
O`NEILL        CLEAR     23  21  93 E3        30.50S
ORD            CLEAR     21  16  81 CALM      30.48R
BROKEN BOW     CLEAR     20  15  81 CALM      30.47S
BROWNLEE         N/A     35  18  50 SE6         N/A  WCI  30
SPRINGVIEW       N/A     21  17  84 CALM        N/A
BREWSTER         N/A     24  20  83 CALM        N/A
ROSE             N/A     32  25  74 MISG        N/A
NEWPORT          N/A     28  27  93 CALM        N/A
SARGENT          N/A     23  19  85 CALM        N/A
COMSTOCK         N/A     32  23  68 CALM        N/A
CHAMBERS         N/A     24  17  75 E3          N/A
EWING            N/A     22  19  87 CALM        N/A
$$

...OBSERVATIONS IN SOUTHWEST NEBRASKA AND FAR NORTHEAST COLORADO...

CITY           SKY/WX    TMP DP  RH WIND       PRES   REMARKS
WRAY           FAIR      32  20  62 CALM      30.45S
HOLYOKE        FAIR      30  19  64 S6        30.44S WCI  24
IMPERIAL       PTCLDY    27  17  66 CALM      30.45F
OGALLALA       CLEAR     19  16  87 CALM      30.44F
NORTH PLATTE   PTCLDY    19  14  81 NE3       30.46S
MCCOOK         PTCLDY    24  17  74 SW5       30.48S WCI  18
LEXINGTON      PTCLDY    22  18  84 W3        30.48S
BRADY            N/A     23  16  74 CALM        N/A
GOTHENBURG       N/A     28  18  66 CALM        N/A
CALLAWAY         N/A     20  16  85 CALM        N/A
$$

...NORTH PLATTE AREA...

CITY           SKY/WX    TMP DP  RH WIND       PRES   REMARKS
AIRPORT        PTCLDY    19  14  81 NE3       30.46S
DOWNTOWN         N/A     26  19  73 CALM        N/A
$$

...SOME WEATHER OBSERVATIONS FROM AROUND THE REGION...

CITY           SKY/WX    TMP DP  RH WIND       PRES   REMARKS
DENVER         CLOUDY    36  25  64 S12       30.35F WCI  28
LARAMIE        CLOUDY    29  23  78 S16G25    30.30F WCI  17
CHEYENNE       CLOUDY    32  19  58 S13       30.35F WCI  22
SCOTTSBLUFF    PTCLDY    29  22  75 E7        30.38F WCI  22
RAPID CITY     CLEAR     29   9  43 SE5       30.35F WCI  24
PIERRE         CLEAR     20  16  84 E6        30.46S WCI  12
WINNER         FAIR      26  19  74 SE9       30.47F WCI  17
SIOUX FALLS    CLOUDY    23  17  78 N7        30.53R WCI  15
OMAHA          CLEAR     29  22  75 N12       30.54R WCI  19
GRAND ISLAND   CLEAR     24  18  77 CALM      30.51S
KANSAS CITY    CLEAR     28  22  78 N7        30.51R WCI  21
WICHITA        FAIR      34  23  64 NW6       30.52S WCI  29
HAYS           FAIR      27  14  59 NW6       30.51S WCI  20
LIBERAL        MOCLDY    37  19  48 E7        30.52R WCI  32
GOODLAND       CLEAR     26  20  77 S10       30.47S WCI  16
$$



USA.gov is the U.S. government's official web portal to all federal, state and local government web resources and services.